STATION	Long[degrees_east]	Lat[degrees_north]	DEPTH[m]	time_ISO8601[ISO8601]	TEMP[deg]	PSAL[PSU]
S1	13.9484	76.4381	1007	2019-11-01 04:00:00	-0.7925	34.9054
S1	13.9484	76.4381	1007	2019-11-01 05:00:00	-0.7893	34.9057
S1	13.9484	76.4381	1007	2019-11-01 06:00:00	-0.7883	34.9054
S1	13.9484	76.4381	1007	2019-11-01 07:00:00	-0.7935	34.9059
S1	13.9484	76.4381	1007	2019-11-01 08:00:00	-0.7685	34.9056
S1	13.9484	76.4381	1007	2019-11-01 09:00:00	-0.6218	34.9059
S1	13.9484	76.4381	1007	2019-11-01 10:00:00	-0.5822	34.9066
S1	13.9484	76.4381	1007	2019-11-01 11:00:00	-0.3648	34.9074
S1	13.9484	76.4381	1007	2019-11-01 12:00:00	-0.3281	34.9077
S1	13.9484	76.4381	1007	2019-11-01 13:00:00	-0.3407	34.9078
S1	13.9484	76.4381	1007	2019-11-01 14:00:00	-0.2192	34.9087
S1	13.9484	76.4381	1007	2019-11-01 15:00:00	-0.1611	34.9102
S1	13.9484	76.4381	1007	2019-11-01 16:00:00	-0.1581	34.9098
S1	13.9484	76.4381	1007	2019-11-01 17:00:00	-0.1948	34.9099
S1	13.9484	76.4381	1007	2019-11-01 18:00:00	-0.4152	34.9078
S1	13.9484	76.4381	1007	2019-11-01 19:00:00	-0.4145	34.9075
S1	13.9484	76.4381	1007	2019-11-01 20:00:00	-0.501	34.907
S1	13.9484	76.4381	1007	2019-11-01 21:00:00	-0.4825	34.9079
S1	13.9484	76.4381	1007	2019-11-01 22:00:00	-0.6216	34.906
S1	13.9484	76.4381	1007	2019-11-01 23:00:00	-0.6406	34.9059
S1	13.9484	76.4381	1007	2019-11-02 00:00:00	-0.6657	34.9066
S1	13.9484	76.4381	1007	2019-11-02 01:00:00	-0.6532	34.9061
S1	13.9484	76.4381	1007	2019-11-02 02:00:00	-0.6839	34.9057
S1	13.9484	76.4381	1007	2019-11-02 03:00:00	-0.6866	34.9058
S1	13.9484	76.4381	1007	2019-11-02 04:00:00	-0.6824	34.9059
S1	13.9484	76.4381	1007	2019-11-02 05:00:00	-0.6442	34.9057
S1	13.9484	76.4381	1007	2019-11-02 06:00:00	-0.59	34.9064
S1	13.9484	76.4381	1007	2019-11-02 07:00:00	-0.5505	34.9068
S1	13.9484	76.4381	1007	2019-11-02 08:00:00	-0.5458	34.9064
S1	13.9484	76.4381	1007	2019-11-02 09:00:00	-0.4983	34.9065
S1	13.9484	76.4381	1007	2019-11-02 10:00:00	-0.456	34.9071
S1	13.9484	76.4381	1007	2019-11-02 11:00:00	-0.4463	34.907
S1	13.9484	76.4381	1007	2019-11-02 12:00:00	-0.4519	34.9071
S1	13.9484	76.4381	1007	2019-11-02 13:00:00	-0.5772	34.9064
S1	13.9484	76.4381	1007	2019-11-02 14:00:00	-0.5981	34.9065
S1	13.9484	76.4381	1007	2019-11-02 15:00:00	-0.6063	34.9062
S1	13.9484	76.4381	1007	2019-11-02 16:00:00	-0.5537	34.9064
S1	13.9484	76.4381	1007	2019-11-02 17:00:00	-0.5071	34.9066
S1	13.9484	76.4381	1007	2019-11-02 18:00:00	-0.4646	34.9067
S1	13.9484	76.4381	1007	2019-11-02 19:00:00	-0.4155	34.9067
S1	13.9484	76.4381	1007	2019-11-02 20:00:00	-0.4329	34.9073
S1	13.9484	76.4381	1007	2019-11-02 21:00:00	-0.4441	34.9068
S1	13.9484	76.4381	1007	2019-11-02 22:00:00	-0.4584	34.9069
S1	13.9484	76.4381	1007	2019-11-02 23:00:00	-0.4967	34.9069
S1	13.9484	76.4381	1007	2019-11-03 00:00:00	-0.5133	34.9066
S1	13.9484	76.4381	1007	2019-11-03 01:00:00	-0.5181	34.9062
S1	13.9484	76.4381	1007	2019-11-03 02:00:00	-0.5296	34.9065
S1	13.9484	76.4381	1007	2019-11-03 03:00:00	-0.5562	34.9061
S1	13.9484	76.4381	1007	2019-11-03 04:00:00	-0.5632	34.906
S1	13.9484	76.4381	1007	2019-11-03 05:00:00	-0.5594	34.9063
S1	13.9484	76.4381	1007	2019-11-03 06:00:00	-0.5799	34.9056
S1	13.9484	76.4381	1007	2019-11-03 07:00:00	-0.6341	34.9056
S1	13.9484	76.4381	1007	2019-11-03 08:00:00	-0.6671	34.9055
S1	13.9484	76.4381	1007	2019-11-03 09:00:00	-0.6812	34.9057
S1	13.9484	76.4381	1007	2019-11-03 10:00:00	-0.7127	34.9055
S1	13.9484	76.4381	1007	2019-11-03 11:00:00	-0.7171	34.9052
S1	13.9484	76.4381	1007	2019-11-03 12:00:00	-0.7325	34.9056
S1	13.9484	76.4381	1007	2019-11-03 13:00:00	-0.7326	34.9054
S1	13.9484	76.4381	1007	2019-11-03 14:00:00	-0.7369	34.9058
S1	13.9484	76.4381	1007	2019-11-03 15:00:00	-0.7144	34.9057
S1	13.9484	76.4381	1007	2019-11-03 16:00:00	-0.7093	34.9051
S1	13.9484	76.4381	1007	2019-11-03 17:00:00	-0.7049	34.9058
S1	13.9484	76.4381	1007	2019-11-03 18:00:00	-0.6894	34.9056
S1	13.9484	76.4381	1007	2019-11-03 19:00:00	-0.6906	34.9054
S1	13.9484	76.4381	1007	2019-11-03 20:00:00	-0.6907	34.9056
S1	13.9484	76.4381	1007	2019-11-03 21:00:00	-0.7015	34.9055
S1	13.9484	76.4381	1007	2019-11-03 22:00:00	-0.7026	34.9057
S1	13.9484	76.4381	1007	2019-11-03 23:00:00	-0.7098	34.9056
S1	13.9484	76.4381	1007	2019-11-04 00:00:00	-0.7112	34.9056
S1	13.9484	76.4381	1007	2019-11-04 01:00:00	-0.7096	34.9057
S1	13.9484	76.4381	1007	2019-11-04 02:00:00	-0.7056	34.9058
S1	13.9484	76.4381	1007	2019-11-04 03:00:00	-0.6983	34.9055
S1	13.9484	76.4381	1007	2019-11-04 04:00:00	-0.6963	34.9055
S1	13.9484	76.4381	1007	2019-11-04 05:00:00	-0.6454	34.9057
S1	13.9484	76.4381	1007	2019-11-04 06:00:00	-0.6482	34.9057
S1	13.9484	76.4381	1007	2019-11-04 07:00:00	-0.6181	34.9056
S1	13.9484	76.4381	1007	2019-11-04 08:00:00	-0.615	34.9059
S1	13.9484	76.4381	1007	2019-11-04 09:00:00	-0.571	34.906
S1	13.9484	76.4381	1007	2019-11-04 10:00:00	-0.5746	34.906
S1	13.9484	76.4381	1007	2019-11-04 11:00:00	-0.5752	34.9061
S1	13.9484	76.4381	1007	2019-11-04 12:00:00	-0.5835	34.9056
S1	13.9484	76.4381	1007	2019-11-04 13:00:00	-0.5879	34.9059
S1	13.9484	76.4381	1007	2019-11-04 14:00:00	-0.593	34.9058
S1	13.9484	76.4381	1007	2019-11-04 15:00:00	-0.5901	34.9059
S1	13.9484	76.4381	1007	2019-11-04 16:00:00	-0.5785	34.9059
S1	13.9484	76.4381	1007	2019-11-04 17:00:00	-0.5923	34.9061
S1	13.9484	76.4381	1007	2019-11-04 18:00:00	-0.6064	34.9057
S1	13.9484	76.4381	1007	2019-11-04 19:00:00	-0.6145	34.9055
S1	13.9484	76.4381	1007	2019-11-04 20:00:00	-0.6147	34.9056
S1	13.9484	76.4381	1007	2019-11-04 21:00:00	-0.6532	34.9059
S1	13.9484	76.4381	1007	2019-11-04 22:00:00	-0.6929	34.9059
S1	13.9484	76.4381	1007	2019-11-04 23:00:00	-0.6993	34.9054
S1	13.9484	76.4381	1007	2019-11-05 00:00:00	-0.7009	34.9057
S1	13.9484	76.4381	1007	2019-11-05 01:00:00	-0.703	34.9056
S1	13.9484	76.4381	1007	2019-11-05 02:00:00	-0.6939	34.9054
S1	13.9484	76.4381	1007	2019-11-05 03:00:00	-0.7122	34.9057
S1	13.9484	76.4381	1007	2019-11-05 04:00:00	-0.7084	34.9059
S1	13.9484	76.4381	1007	2019-11-05 05:00:00	-0.7478	34.9057
S1	13.9484	76.4381	1007	2019-11-05 06:00:00	-0.7559	34.9055
S1	13.9484	76.4381	1007	2019-11-05 07:00:00	-0.7563	34.9055
S1	13.9484	76.4381	1007	2019-11-05 08:00:00	-0.762	34.9052
S1	13.9484	76.4381	1007	2019-11-05 09:00:00	-0.7522	34.9054
S1	13.9484	76.4381	1007	2019-11-05 10:00:00	-0.7504	34.9056
S1	13.9484	76.4381	1007	2019-11-05 11:00:00	-0.7678	34.9056
S1	13.9484	76.4381	1007	2019-11-05 12:00:00	-0.7673	34.9057
S1	13.9484	76.4381	1007	2019-11-05 13:00:00	-0.7603	34.9055
S1	13.9484	76.4381	1007	2019-11-05 14:00:00	-0.7843	34.9057
S1	13.9484	76.4381	1007	2019-11-05 15:00:00	-0.7821	34.9054
S1	13.9484	76.4381	1007	2019-11-05 16:00:00	-0.7817	34.9058
S1	13.9484	76.4381	1007	2019-11-05 17:00:00	-0.775	34.9058
S1	13.9484	76.4381	1007	2019-11-05 18:00:00	-0.7737	34.9052
S1	13.9484	76.4381	1007	2019-11-05 19:00:00	-0.7558	34.9052
S1	13.9484	76.4381	1007	2019-11-05 20:00:00	-0.7739	34.9054
S1	13.9484	76.4381	1007	2019-11-05 21:00:00	-0.7792	34.9071
S1	13.9484	76.4381	1007	2019-11-05 22:00:00	-0.7832	34.9054
S1	13.9484	76.4381	1007	2019-11-05 23:00:00	-0.7772	34.9054
S1	13.9484	76.4381	1007	2019-11-06 00:00:00	-0.7779	34.9054
S1	13.9484	76.4381	1007	2019-11-06 01:00:00	-0.774	34.906
S1	13.9484	76.4381	1007	2019-11-06 02:00:00	-0.7705	34.9054
S1	13.9484	76.4381	1007	2019-11-06 03:00:00	-0.7662	34.9054
S1	13.9484	76.4381	1007	2019-11-06 04:00:00	-0.7666	34.9053
S1	13.9484	76.4381	1007	2019-11-06 05:00:00	-0.7542	34.9058
S1	13.9484	76.4381	1007	2019-11-06 06:00:00	-0.7424	34.9056
S1	13.9484	76.4381	1007	2019-11-06 07:00:00	-0.7342	34.9058
S1	13.9484	76.4381	1007	2019-11-06 08:00:00	-0.7196	34.9055
S1	13.9484	76.4381	1007	2019-11-06 09:00:00	-0.695	34.9052
S1	13.9484	76.4381	1007	2019-11-06 10:00:00	-0.673	34.9051
S1	13.9484	76.4381	1007	2019-11-06 11:00:00	-0.6564	34.9053
S1	13.9484	76.4381	1007	2019-11-06 12:00:00	-0.6477	34.9056
S1	13.9484	76.4381	1007	2019-11-06 13:00:00	-0.6906	34.9059
S1	13.9484	76.4381	1007	2019-11-06 14:00:00	-0.6782	34.9061
S1	13.9484	76.4381	1007	2019-11-06 15:00:00	-0.6831	34.9055
S1	13.9484	76.4381	1007	2019-11-06 16:00:00	-0.6731	34.9056
S1	13.9484	76.4381	1007	2019-11-06 17:00:00	-0.6547	34.9057
S1	13.9484	76.4381	1007	2019-11-06 18:00:00	-0.6667	34.9057
S1	13.9484	76.4381	1007	2019-11-06 19:00:00	-0.5916	34.906
S1	13.9484	76.4381	1007	2019-11-06 20:00:00	-0.6032	34.906
S1	13.9484	76.4381	1007	2019-11-06 21:00:00	-0.5671	34.906
S1	13.9484	76.4381	1007	2019-11-06 22:00:00	-0.5409	34.9062
S1	13.9484	76.4381	1007	2019-11-06 23:00:00	-0.5097	34.9063
S1	13.9484	76.4381	1007	2019-11-07 00:00:00	-0.55	34.906
S1	13.9484	76.4381	1007	2019-11-07 01:00:00	-0.5255	34.9059
S1	13.9484	76.4381	1007	2019-11-07 02:00:00	-0.5115	34.9062
S1	13.9484	76.4381	1007	2019-11-07 03:00:00	-0.5692	34.9063
S1	13.9484	76.4381	1007	2019-11-07 04:00:00	-0.5741	34.9063
S1	13.9484	76.4381	1007	2019-11-07 05:00:00	-0.5805	34.9058
S1	13.9484	76.4381	1007	2019-11-07 06:00:00	-0.7367	34.9051
S1	13.9484	76.4381	1007	2019-11-07 07:00:00	-0.7227	34.9058
S1	13.9484	76.4381	1007	2019-11-07 08:00:00	-0.7443	34.9057
S1	13.9484	76.4381	1007	2019-11-07 09:00:00	-0.7553	34.9057
S1	13.9484	76.4381	1007	2019-11-07 10:00:00	-0.755	34.9058
S1	13.9484	76.4381	1007	2019-11-07 11:00:00	-0.7886	34.9057
S1	13.9484	76.4381	1007	2019-11-07 12:00:00	-0.788	34.9058
S1	13.9484	76.4381	1007	2019-11-07 13:00:00	-0.7867	34.9058
S1	13.9484	76.4381	1007	2019-11-07 14:00:00	-0.7851	34.9054
S1	13.9484	76.4381	1007	2019-11-07 15:00:00	-0.7801	34.9054
S1	13.9484	76.4381	1007	2019-11-07 16:00:00	-0.7741	34.9048
S1	13.9484	76.4381	1007	2019-11-07 17:00:00	-0.7729	34.9059
S1	13.9484	76.4381	1007	2019-11-07 18:00:00	-0.7418	34.9054
S1	13.9484	76.4381	1007	2019-11-07 19:00:00	-0.7765	34.9055
S1	13.9484	76.4381	1007	2019-11-07 20:00:00	-0.7829	34.9059
S1	13.9484	76.4381	1007	2019-11-07 21:00:00	-0.7773	34.9058
S1	13.9484	76.4381	1007	2019-11-07 22:00:00	-0.7795	34.9058
S1	13.9484	76.4381	1007	2019-11-07 23:00:00	-0.779	34.9057
S1	13.9484	76.4381	1007	2019-11-08 00:00:00	-0.7776	34.9058
S1	13.9484	76.4381	1007	2019-11-08 01:00:00	-0.7766	34.9056
S1	13.9484	76.4381	1007	2019-11-08 02:00:00	-0.7723	34.9058
S1	13.9484	76.4381	1007	2019-11-08 03:00:00	-0.7686	34.9057
S1	13.9484	76.4381	1007	2019-11-08 04:00:00	-0.7612	34.9055
S1	13.9484	76.4381	1007	2019-11-08 05:00:00	-0.7556	34.9054
S1	13.9484	76.4381	1007	2019-11-08 06:00:00	-0.7516	34.9055
S1	13.9484	76.4381	1007	2019-11-08 07:00:00	-0.7523	34.9057
S1	13.9484	76.4381	1007	2019-11-08 08:00:00	-0.751	34.9055
S1	13.9484	76.4381	1007	2019-11-08 09:00:00	-0.752	34.9056
S1	13.9484	76.4381	1007	2019-11-08 10:00:00	-0.751	34.9056
S1	13.9484	76.4381	1007	2019-11-08 11:00:00	-0.7517	34.9053
S1	13.9484	76.4381	1007	2019-11-08 12:00:00	-0.7599	34.9058
S1	13.9484	76.4381	1007	2019-11-08 13:00:00	-0.761	34.9056
S1	13.9484	76.4381	1007	2019-11-08 14:00:00	-0.7681	34.9058
S1	13.9484	76.4381	1007	2019-11-08 15:00:00	-0.7648	34.9058
S1	13.9484	76.4381	1007	2019-11-08 16:00:00	-0.7621	34.9057
S1	13.9484	76.4381	1007	2019-11-08 17:00:00	-0.7598	34.9058
S1	13.9484	76.4381	1007	2019-11-08 18:00:00	-0.7443	34.9057
S1	13.9484	76.4381	1007	2019-11-08 19:00:00	-0.7169	34.9056
S1	13.9484	76.4381	1007	2019-11-08 20:00:00	-0.6863	34.9058
S1	13.9484	76.4381	1007	2019-11-08 21:00:00	-0.6712	34.9056
S1	13.9484	76.4381	1007	2019-11-08 22:00:00	-0.6798	34.9055
S1	13.9484	76.4381	1007	2019-11-08 23:00:00	-0.6864	34.9054
S1	13.9484	76.4381	1007	2019-11-09 00:00:00	-0.6962	34.9057
S1	13.9484	76.4381	1007	2019-11-09 01:00:00	-0.7011	34.9054
S1	13.9484	76.4381	1007	2019-11-09 02:00:00	-0.7105	34.9056
S1	13.9484	76.4381	1007	2019-11-09 03:00:00	-0.734	34.9054
S1	13.9484	76.4381	1007	2019-11-09 04:00:00	-0.7497	34.9054
S1	13.9484	76.4381	1007	2019-11-09 05:00:00	-0.7644	34.9059
S1	13.9484	76.4381	1007	2019-11-09 06:00:00	-0.7632	34.9056
S1	13.9484	76.4381	1007	2019-11-09 07:00:00	-0.7586	34.9054
S1	13.9484	76.4381	1007	2019-11-09 08:00:00	-0.729	34.9056
S1	13.9484	76.4381	1007	2019-11-09 09:00:00	-0.7224	34.9055
S1	13.9484	76.4381	1007	2019-11-09 10:00:00	-0.7232	34.9055
S1	13.9484	76.4381	1007	2019-11-09 11:00:00	-0.705	34.9053
S1	13.9484	76.4381	1007	2019-11-09 12:00:00	-0.715	34.9056
S1	13.9484	76.4381	1007	2019-11-09 13:00:00	-0.7281	34.906
S1	13.9484	76.4381	1007	2019-11-09 14:00:00	-0.7822	34.9059
S1	13.9484	76.4381	1007	2019-11-09 15:00:00	-0.7866	34.9055
S1	13.9484	76.4381	1007	2019-11-09 16:00:00	-0.7933	34.9057
S1	13.9484	76.4381	1007	2019-11-09 17:00:00	-0.7944	34.906
S1	13.9484	76.4381	1007	2019-11-09 18:00:00	-0.7947	34.9055
S1	13.9484	76.4381	1007	2019-11-09 19:00:00	-0.7942	34.9057
S1	13.9484	76.4381	1007	2019-11-09 20:00:00	-0.7935	34.9053
S1	13.9484	76.4381	1007	2019-11-09 21:00:00	-0.7944	34.9058
S1	13.9484	76.4381	1007	2019-11-09 22:00:00	-0.7942	34.9057
S1	13.9484	76.4381	1007	2019-11-09 23:00:00	-0.7902	34.9056
S1	13.9484	76.4381	1007	2019-11-10 00:00:00	-0.7937	34.9057
S1	13.9484	76.4381	1007	2019-11-10 01:00:00	-0.7798	34.9059
S1	13.9484	76.4381	1007	2019-11-10 02:00:00	-0.7935	34.9058
S1	13.9484	76.4381	1007	2019-11-10 03:00:00	-0.7922	34.9056
S1	13.9484	76.4381	1007	2019-11-10 04:00:00	-0.7911	34.9058
S1	13.9484	76.4381	1007	2019-11-10 05:00:00	-0.7917	34.9058
S1	13.9484	76.4381	1007	2019-11-10 06:00:00	-0.7917	34.9058
S1	13.9484	76.4381	1007	2019-11-10 07:00:00	-0.7926	34.9059
S1	13.9484	76.4381	1007	2019-11-10 08:00:00	-0.7923	34.9058
S1	13.9484	76.4381	1007	2019-11-10 09:00:00	-0.7908	34.9059
S1	13.9484	76.4381	1007	2019-11-10 10:00:00	-0.7856	34.9058
S1	13.9484	76.4381	1007	2019-11-10 11:00:00	-0.7723	34.9058
S1	13.9484	76.4381	1007	2019-11-10 12:00:00	-0.7673	34.906
S1	13.9484	76.4381	1007	2019-11-10 13:00:00	-0.7756	34.9055
S1	13.9484	76.4381	1007	2019-11-10 14:00:00	-0.7789	34.906
S1	13.9484	76.4381	1007	2019-11-10 15:00:00	-0.7383	34.9056
S1	13.9484	76.4381	1007	2019-11-10 16:00:00	-0.6366	34.9057
S1	13.9484	76.4381	1007	2019-11-10 17:00:00	-0.6624	34.9053
S1	13.9484	76.4381	1007	2019-11-10 18:00:00	-0.5541	34.9059
S1	13.9484	76.4381	1007	2019-11-10 19:00:00	-0.6215	34.9059
S1	13.9484	76.4381	1007	2019-11-10 20:00:00	-0.604	34.906
S1	13.9484	76.4381	1007	2019-11-10 21:00:00	-0.6069	34.9059
S1	13.9484	76.4381	1007	2019-11-10 22:00:00	-0.6112	34.9056
S1	13.9484	76.4381	1007	2019-11-10 23:00:00	-0.6544	34.9059
S1	13.9484	76.4381	1007	2019-11-11 00:00:00	-0.7059	34.9059
S1	13.9484	76.4381	1007	2019-11-11 01:00:00	-0.6526	34.9058
S1	13.9484	76.4381	1007	2019-11-11 02:00:00	-0.6286	34.9059
S1	13.9484	76.4381	1007	2019-11-11 03:00:00	-0.617	34.9057
S1	13.9484	76.4381	1007	2019-11-11 04:00:00	-0.5971	34.9056
S1	13.9484	76.4381	1007	2019-11-11 05:00:00	-0.7687	34.9057
S1	13.9484	76.4381	1007	2019-11-11 06:00:00	-0.7685	34.9059
S1	13.9484	76.4381	1007	2019-11-11 07:00:00	-0.7867	34.9056
S1	13.9484	76.4381	1007	2019-11-11 08:00:00	-0.7955	34.9056
S1	13.9484	76.4381	1007	2019-11-11 09:00:00	-0.7837	34.906
S1	13.9484	76.4381	1007	2019-11-11 10:00:00	-0.7779	34.9056
S1	13.9484	76.4381	1007	2019-11-11 11:00:00	-0.7797	34.9054
S1	13.9484	76.4381	1007	2019-11-11 12:00:00	-0.7826	34.9056
S1	13.9484	76.4381	1007	2019-11-11 13:00:00	-0.7928	34.9057
S1	13.9484	76.4381	1007	2019-11-11 14:00:00	-0.7933	34.9056
S1	13.9484	76.4381	1007	2019-11-11 15:00:00	-0.7542	34.9053
S1	13.9484	76.4381	1007	2019-11-11 16:00:00	-0.7694	34.9055
S1	13.9484	76.4381	1007	2019-11-11 17:00:00	-0.791	34.9057
S1	13.9484	76.4381	1007	2019-11-11 18:00:00	-0.7803	34.9058
S1	13.9484	76.4381	1007	2019-11-11 19:00:00	-0.7783	34.9057
S1	13.9484	76.4381	1007	2019-11-11 20:00:00	-0.7781	34.9055
S1	13.9484	76.4381	1007	2019-11-11 21:00:00	-0.7762	34.9057
S1	13.9484	76.4381	1007	2019-11-11 22:00:00	-0.774	34.9056
S1	13.9484	76.4381	1007	2019-11-11 23:00:00	-0.7715	34.9057
S1	13.9484	76.4381	1007	2019-11-12 00:00:00	-0.7728	34.9056
S1	13.9484	76.4381	1007	2019-11-12 01:00:00	-0.7705	34.9056
S1	13.9484	76.4381	1007	2019-11-12 02:00:00	-0.7726	34.9056
S1	13.9484	76.4381	1007	2019-11-12 03:00:00	-0.7845	34.906
S1	13.9484	76.4381	1007	2019-11-12 04:00:00	-0.7876	34.9057
S1	13.9484	76.4381	1007	2019-11-12 05:00:00	-0.7876	34.9056
S1	13.9484	76.4381	1007	2019-11-12 06:00:00	-0.7815	34.9054
S1	13.9484	76.4381	1007	2019-11-12 07:00:00	-0.782	34.9057
S1	13.9484	76.4381	1007	2019-11-12 08:00:00	-0.7815	34.9057
S1	13.9484	76.4381	1007	2019-11-12 09:00:00	-0.7844	34.9057
S1	13.9484	76.4381	1007	2019-11-12 10:00:00	-0.786	34.9057
S1	13.9484	76.4381	1007	2019-11-12 11:00:00	-0.781	34.9056
S1	13.9484	76.4381	1007	2019-11-12 12:00:00	-0.7821	34.9059
S1	13.9484	76.4381	1007	2019-11-12 13:00:00	-0.7821	34.9057
S1	13.9484	76.4381	1007	2019-11-12 14:00:00	-0.7874	34.9056
S1	13.9484	76.4381	1007	2019-11-12 15:00:00	-0.7983	34.9058
S1	13.9484	76.4381	1007	2019-11-12 16:00:00	-0.7975	34.9057
S1	13.9484	76.4381	1007	2019-11-12 17:00:00	-0.7903	34.9058
S1	13.9484	76.4381	1007	2019-11-12 18:00:00	-0.7872	34.9057
S1	13.9484	76.4381	1007	2019-11-12 19:00:00	-0.7872	34.9055
S1	13.9484	76.4381	1007	2019-11-12 20:00:00	-0.7876	34.9058
S1	13.9484	76.4381	1007	2019-11-12 21:00:00	-0.7857	34.9053
S1	13.9484	76.4381	1007	2019-11-12 22:00:00	-0.7819	34.9055
S1	13.9484	76.4381	1007	2019-11-12 23:00:00	-0.7822	34.9059
S1	13.9484	76.4381	1007	2019-11-13 00:00:00	-0.7826	34.9059
S1	13.9484	76.4381	1007	2019-11-13 01:00:00	-0.7823	34.9058
S1	13.9484	76.4381	1007	2019-11-13 02:00:00	-0.782	34.9054
S1	13.9484	76.4381	1007	2019-11-13 03:00:00	-0.7817	34.9057
S1	13.9484	76.4381	1007	2019-11-13 04:00:00	-0.7828	34.9056
S1	13.9484	76.4381	1007	2019-11-13 05:00:00	-0.7894	34.9056
S1	13.9484	76.4381	1007	2019-11-13 06:00:00	-0.7879	34.9056
S1	13.9484	76.4381	1007	2019-11-13 07:00:00	-0.7871	34.9059
S1	13.9484	76.4381	1007	2019-11-13 08:00:00	-0.7862	34.9055
S1	13.9484	76.4381	1007	2019-11-13 09:00:00	-0.7867	34.9059
S1	13.9484	76.4381	1007	2019-11-13 10:00:00	-0.7887	34.9056
S1	13.9484	76.4381	1007	2019-11-13 11:00:00	-0.7964	34.9061
S1	13.9484	76.4381	1007	2019-11-13 12:00:00	-0.7758	34.9061
S1	13.9484	76.4381	1007	2019-11-13 13:00:00	-0.7421	34.9056
S1	13.9484	76.4381	1007	2019-11-13 14:00:00	-0.7293	34.9055
S1	13.9484	76.4381	1007	2019-11-13 15:00:00	-0.7241	34.9056
S1	13.9484	76.4381	1007	2019-11-13 16:00:00	-0.7337	34.9059
S1	13.9484	76.4381	1007	2019-11-13 17:00:00	-0.7568	34.9057
S1	13.9484	76.4381	1007	2019-11-13 18:00:00	-0.763	34.9058
S1	13.9484	76.4381	1007	2019-11-13 19:00:00	-0.7643	34.9055
S1	13.9484	76.4381	1007	2019-11-13 20:00:00	-0.7676	34.9058
S1	13.9484	76.4381	1007	2019-11-13 21:00:00	-0.772	34.9059
S1	13.9484	76.4381	1007	2019-11-13 22:00:00	-0.7731	34.9057
S1	13.9484	76.4381	1007	2019-11-13 23:00:00	-0.7734	34.9056
S1	13.9484	76.4381	1007	2019-11-14 00:00:00	-0.7747	34.9057
S1	13.9484	76.4381	1007	2019-11-14 01:00:00	-0.7753	34.9056
S1	13.9484	76.4381	1007	2019-11-14 02:00:00	-0.7755	34.9054
S1	13.9484	76.4381	1007	2019-11-14 03:00:00	-0.7752	34.9055
S1	13.9484	76.4381	1007	2019-11-14 04:00:00	-0.7712	34.9056
S1	13.9484	76.4381	1007	2019-11-14 05:00:00	-0.7748	34.9056
S1	13.9484	76.4381	1007	2019-11-14 06:00:00	-0.7789	34.9053
S1	13.9484	76.4381	1007	2019-11-14 07:00:00	-0.7818	34.9057
S1	13.9484	76.4381	1007	2019-11-14 08:00:00	-0.7826	34.9056
S1	13.9484	76.4381	1007	2019-11-14 09:00:00	-0.7846	34.9057
S1	13.9484	76.4381	1007	2019-11-14 10:00:00	-0.7856	34.9058
S1	13.9484	76.4381	1007	2019-11-14 11:00:00	-0.7968	34.9057
S1	13.9484	76.4381	1007	2019-11-14 12:00:00	-0.7947	34.9055
S1	13.9484	76.4381	1007	2019-11-14 13:00:00	-0.7961	34.906
S1	13.9484	76.4381	1007	2019-11-14 14:00:00	-0.8018	34.9061
S1	13.9484	76.4381	1007	2019-11-14 15:00:00	-0.8027	34.9057
S1	13.9484	76.4381	1007	2019-11-14 16:00:00	-0.8075	34.906
S1	13.9484	76.4381	1007	2019-11-14 17:00:00	-0.8062	34.906
S1	13.9484	76.4381	1007	2019-11-14 18:00:00	-0.7959	34.9057
S1	13.9484	76.4381	1007	2019-11-14 19:00:00	-0.8028	34.9061
S1	13.9484	76.4381	1007	2019-11-14 20:00:00	-0.7984	34.9061
S1	13.9484	76.4381	1007	2019-11-14 21:00:00	-0.8134	34.9061
S1	13.9484	76.4381	1007	2019-11-14 22:00:00	-0.8146	34.9061
S1	13.9484	76.4381	1007	2019-11-14 23:00:00	-0.8146	34.9063
S1	13.9484	76.4381	1007	2019-11-15 00:00:00	-0.8143	34.9062
S1	13.9484	76.4381	1007	2019-11-15 01:00:00	-0.8139	34.9059
S1	13.9484	76.4381	1007	2019-11-15 02:00:00	-0.8138	34.9059
S1	13.9484	76.4381	1007	2019-11-15 03:00:00	-0.8139	34.9062
S1	13.9484	76.4381	1007	2019-11-15 04:00:00	-0.8126	34.9061
S1	13.9484	76.4381	1007	2019-11-15 05:00:00	-0.8092	34.9059
S1	13.9484	76.4381	1007	2019-11-15 06:00:00	-0.8068	34.9059
S1	13.9484	76.4381	1007	2019-11-15 07:00:00	-0.8084	34.906
S1	13.9484	76.4381	1007	2019-11-15 08:00:00	-0.8108	34.9059
S1	13.9484	76.4381	1007	2019-11-15 09:00:00	-0.8078	34.9058
S1	13.9484	76.4381	1007	2019-11-15 10:00:00	-0.8064	34.9059
S1	13.9484	76.4381	1007	2019-11-15 11:00:00	-0.8008	34.9061
S1	13.9484	76.4381	1007	2019-11-15 12:00:00	-0.7927	34.9056
S1	13.9484	76.4381	1007	2019-11-15 13:00:00	-0.7906	34.9055
S1	13.9484	76.4381	1007	2019-11-15 14:00:00	-0.7893	34.9053
S1	13.9484	76.4381	1007	2019-11-15 15:00:00	-0.7831	34.9057
S1	13.9484	76.4381	1007	2019-11-15 16:00:00	-0.777	34.9061
S1	13.9484	76.4381	1007	2019-11-15 17:00:00	-0.7781	34.9059
S1	13.9484	76.4381	1007	2019-11-15 18:00:00	-0.7809	34.9058
S1	13.9484	76.4381	1007	2019-11-15 19:00:00	-0.7867	34.9059
S1	13.9484	76.4381	1007	2019-11-15 20:00:00	-0.7902	34.9055
S1	13.9484	76.4381	1007	2019-11-15 21:00:00	-0.7855	34.9055
S1	13.9484	76.4381	1007	2019-11-15 22:00:00	-0.7801	34.9053
S1	13.9484	76.4381	1007	2019-11-15 23:00:00	-0.7754	34.9057
S1	13.9484	76.4381	1007	2019-11-16 00:00:00	-0.7723	34.9053
S1	13.9484	76.4381	1007	2019-11-16 01:00:00	-0.7901	34.905
S1	13.9484	76.4381	1007	2019-11-16 02:00:00	-0.7744	34.9054
S1	13.9484	76.4381	1007	2019-11-16 03:00:00	-0.7722	34.9053
S1	13.9484	76.4381	1007	2019-11-16 04:00:00	-0.7757	34.9055
S1	13.9484	76.4381	1007	2019-11-16 05:00:00	-0.78	34.9055
S1	13.9484	76.4381	1007	2019-11-16 06:00:00	-0.7828	34.9057
S1	13.9484	76.4381	1007	2019-11-16 07:00:00	-0.7756	34.9055
S1	13.9484	76.4381	1007	2019-11-16 08:00:00	-0.7799	34.9058
S1	13.9484	76.4381	1007	2019-11-16 09:00:00	-0.7902	34.9057
S1	13.9484	76.4381	1007	2019-11-16 10:00:00	-0.7791	34.9052
S1	13.9484	76.4381	1007	2019-11-16 11:00:00	-0.785	34.9056
S1	13.9484	76.4381	1007	2019-11-16 12:00:00	-0.7872	34.9053
S1	13.9484	76.4381	1007	2019-11-16 13:00:00	-0.7842	34.9058
S1	13.9484	76.4381	1007	2019-11-16 14:00:00	-0.783	34.9056
S1	13.9484	76.4381	1007	2019-11-16 15:00:00	-0.7786	34.9061
S1	13.9484	76.4381	1007	2019-11-16 16:00:00	-0.7818	34.906
S1	13.9484	76.4381	1007	2019-11-16 17:00:00	-0.785	34.906
S1	13.9484	76.4381	1007	2019-11-16 18:00:00	-0.7824	34.9057
S1	13.9484	76.4381	1007	2019-11-16 19:00:00	-0.7832	34.9057
S1	13.9484	76.4381	1007	2019-11-16 20:00:00	-0.7722	34.9057
S1	13.9484	76.4381	1007	2019-11-16 21:00:00	-0.7792	34.9057
S1	13.9484	76.4381	1007	2019-11-16 22:00:00	-0.7795	34.9057
S1	13.9484	76.4381	1007	2019-11-16 23:00:00	-0.7978	34.9057
S1	13.9484	76.4381	1007	2019-11-17 00:00:00	-0.7746	34.9058
S1	13.9484	76.4381	1007	2019-11-17 01:00:00	-0.7838	34.9057
S1	13.9484	76.4381	1007	2019-11-17 02:00:00	-0.7659	34.9054
S1	13.9484	76.4381	1007	2019-11-17 03:00:00	-0.7558	34.9055
S1	13.9484	76.4381	1007	2019-11-17 04:00:00	-0.7738	34.9056
S1	13.9484	76.4381	1007	2019-11-17 05:00:00	-0.7835	34.9058
S1	13.9484	76.4381	1007	2019-11-17 06:00:00	-0.7212	34.9057
S1	13.9484	76.4381	1007	2019-11-17 07:00:00	-0.7052	34.9061
S1	13.9484	76.4381	1007	2019-11-17 08:00:00	-0.7109	34.9056
S1	13.9484	76.4381	1007	2019-11-17 09:00:00	-0.7471	34.9057
S1	13.9484	76.4381	1007	2019-11-17 10:00:00	-0.7766	34.9055
S1	13.9484	76.4381	1007	2019-11-17 11:00:00	-0.7793	34.9058
S1	13.9484	76.4381	1007	2019-11-17 12:00:00	-0.7843	34.9061
S1	13.9484	76.4381	1007	2019-11-17 13:00:00	-0.7986	34.9063
S1	13.9484	76.4381	1007	2019-11-17 14:00:00	-0.7941	34.9057
S1	13.9484	76.4381	1007	2019-11-17 15:00:00	-0.8036	34.9059
S1	13.9484	76.4381	1007	2019-11-17 16:00:00	-0.8026	34.9061
S1	13.9484	76.4381	1007	2019-11-17 17:00:00	-0.8013	34.9058
S1	13.9484	76.4381	1007	2019-11-17 18:00:00	-0.8014	34.9058